Wind_Speed
2 7 5 6 6 3 3 5 7 3 5 5 6 14 21 9 9 6 6 2 6 6 11 8 5 5 6 6 5 6 9 8 10 12 13 14 12 16 13 15 15 15 17 19
4 4 4 2 3 4 1 6 4 3 2 5 9 20 16 5 2 5 6 7 8 7 7 8 8 7 7 7 7 8 9 11 10 11 11 11 14 12 15 14 19 13 18 21
5 4 2 2 3 5 4 3 4 2 8 4 8 8 4 4 7 6 4 7 6 6 7 7 10 10 9 9 10 9 11 12 10 11 12 12 13 15 14 17 19 18 16 19
5 2 2 1 1 4 2 4 4 6 6 3 5 4 4 4 6 5 8 6 6 7 4 2 2 5 8 8 9 12 13 12 11 10 12 11 13 16 16 17 17 17 17 16
1 2 0 3 3 5 3 4 4 2 4 3 3 3 6 4 5 5 8 9 7 6 3 1 2 5 7 9 11 14 12 14 13 12 11 11 13 13 15 15 15 16 15 15
4 2 3 5 1 2 5 5 5 2 1 2 1 3 5 3 2 3 8 7 6 5 1 1 3 6 9 10 12 13 14 15 14 14 13 12 14 14 15 15 14 13 16 14
3 4 3 2 4 5 2 4 2 5 2 4 3 2 7 3 3 6 8 6 4 2 3 4 6 8 10 11 11 12 14 17 15 15 16 15 14 14 15 16 15 14 15 15
4 3 3 3 2 2 2 1 4 3 2 4 4 4 4 4 6 6 5 2 2 5 5 6 9 12 13 13 13 13 13 17 17 17 19 17 16 16 15 15 15 16 16 17
1 2 3 1 2 3 1 1 1 1 1 2 4 4 6 7 6 5 3 7 7 7 7 7 12 14 14 14 12 13 14 16 18 19 20 21 19 17 18 18 16 18 15 14
2 1 1 4 3 2 2 1 1 2 2 4 5 2 4 2 4 6 5 4 5 5 6 7 9 13 14 14 14 14 14 16 18 19 21 22 21 20 19 19 19 18 17 15
2 2 1 1 5 4 2 2 2 1 2 2 4 5 4 8 5 3 4 5 5 6 5 6 9 14 16 15 17 15 14 16 18 19 21 23 23 23 22 22 21 18 16 16
3 3 3 2 4 5 3 3 6 3 1 3 3 6 5 7 5 4 6 6 6 5 7 6 10 15 16 17 17 19 19 20 21 21 21 23 24 23 24 23 22 19 18 16
2 2 3 2 2 1 3 4 4 3 3 5 1 5 4 6 7 3 6 5 6 7 7 6 8 11 15 19 21 24 21 24 24 21 21 23 25 25 26 26 23 21 22 20
3 3 4 5 2 1 4 5 7 6 3 4 8 3 6 5 6 8 6 6 8 8 8 7 8 11 19 23 27 25 27 27 27 22 20 23 27 28 27 26 25 23 23 22
1 3 3 7 9 7 8 10 9 11 12 5 2 7 8 9 5 5 6 8 8 8 8 8 9 12 22 23 25 28 28 28 26 25 23 24 27 28 27 27 27 26 26 26
4 3 3 5 11 10 10 14 15 17 16 15 17 23 14 1 6 6 7 8 10 8 10 14 15 18 18 22 25 27 28 28 24 25 26 26 26 28 29 29 29 28 29 27
5 2 3 5 3 7 9 6 12 7 5 10 12 10 3 5 4 5 8 7 8 8 11 13 14 17 22 23 27 28 28 27 24 25 29 26 27 28 29 30 28 30 31 29
2 3 2 4 6 3 5 2 3 6 5 9 7 4 2 3 4 6 8 5 7 11 14 14 15 20 24 26 28 29 28 27 27 27 28 27 26 28 29 29 30 31 30 30
4 2 3 3 3 9 2 2 3 3 5 3 4 4 2 4 6 8 2 8 9 10 14 16 21 24 26 26 27 28 28 26 25 26 28 27 28 30 30 29 31 32 30 30
3 3 3 2 3 5 1 4 3 5 4 5 3 3 4 3 4 5 7 6 8 15 18 18 24 25 23 25 27 25 24 25 23 25 28 30 30 31 30 29 31 32 30 31
3 3 10 7 4 7 2 7 3 3 4 5 0 4 3 3 4 5 9 10 15 17 18 21 21 21 23 26 25 25 26 24 28 31 31 30 30 30 30 28 27 27 27 28
7 7 4 4 5 9 6 5 3 1 2 2 4 4 3 5 7 7 7 8 11 11 16 19 20 22 25 25 24 22 20 25 27 27 27 28 28 28 28 27 25 23 23 24
4 6 4 8 6 3 6 3 5 3 6 4 2 2 3 6 6 6 7 7 7 12 15 18 19 22 24 22 21 23 26 28 29 30 29 29 30 29 25 24 22 21 21 23
4 6 4 1 4 3 4 3 6 3 2 4 3 3 5 5 6 9 6 5 7 12 15 19 22 19 22 26 26 23 24 26 26 26 27 29 28 28 28 23 21 21 21 20
3 3 4 5 6 10 10 7 10 5 4 5 5 4 5 7 9 7 4 6 10 15 18 19 19 19 24 29 30 32 32 32 31 29 28 28 27 27 29 28 25 23 27 25
10 19 11 15 12 12 15 8 7 4 5 5 4 5 6 7 6 5 5 9 13 16 20 20 24 21 24 29 30 31 32 32 31 27 24 24 25 26 25 27 30 27 24 26
Wind_Direction
36 63 68 53 12 335 1 316 291 339 82 346 268 280 284 272 260 253 249 171 119 137 115 131 168 205 225 256 277 297 306 313 323 329 334 335 331 331 330 339 335 335 340 336
69 98 62 6 304 283 301 294 346 317 86 327 289 289 290 314 160 146 150 135 141 119 133 163 197 217 240 260 272 282 284 296 311 318 325 325 324 331 331 331 324 331 333 339
114 92 124 302 253 342 110 30 16 281 309 252 310 286 162 49 92 79 46 77 86 128 163 173 193 215 235 247 259 264 275 292 304 311 320 322 323 325 333 330 336 336 334 332
82 82 342 307 79 341 305 31 335 317 5 288 32 279 24 157 139 181 167 167 127 116 120 130 237 254 251 260 258 263 282 287 296 298 311 315 312 315 324 325 332 325 329 326
209 144 96 275 40 344 32 354 326 313 307 328 201 71 273 109 150 178 100 87 84 84 67 71 242 264 271 272 272 277 279 279 286 287 292 297 297 303 311 318 319 320 320 320
81 24 337 20 40 344 316 265 248 159 276 24 28 109 294 48 325 72 90 86 76 67 33 246 273 280 287 292 287 282 282 281 279 278 284 283 283 292 300 306 311 312 313 309
172 141 115 290 251 200 281 45 347 355 355 221 198 43 247 17 76 56 83 55 34 347 344 320 310 305 297 295 293 287 276 274 278 273 271 272 274 277 283 293 300 303 313 316
167 315 192 153 329 308 20 282 134 213 326 287 155 238 272 124 83 72 83 180 57 38 353 339 316 305 295 288 287 284 279 272 269 266 265 269 269 271 277 280 283 287 295 302
344 161 140 311 351 337 155 30 12 36 258 7 233 231 50 33 136 115 92 52 25 13 358 340 332 334 334 334 320 304 285 278 270 266 263 264 264 262 263 268 270 277 284 293
63 289 191 123 235 163 338 6 19 354 34 292 283 237 209 344 123 61 46 43 13 5 2 344 346 343 332 322 315 308 298 286 281 272 265 265 265 263 262 265 268 272 279 286
357 123 163 79 199 162 152 212 228 33 180 228 316 270 160 190 168 93 38 44 29 18 351 335 334 345 347 355 344 315 297 290 287 280 270 262 263 263 263 262 261 262 268 276
52 330 262 172 69 31 337 305 186 131 221 237 171 275 140 156 171 235 51 60 17 3 338 333 347 342 340 339 332 325 320 302 291 286 275 267 268 266 262 261 261 260 255 256
95 251 333 324 48 120 264 216 258 338 56 229 164 265 132 174 207 32 88 41 11 343 332 318 328 327 328 325 326 320 322 320 308 287 281 274 266 263 262 263 264 258 256 255
13 290 218 206 159 151 221 218 202 192 167 228 224 250 202 168 341 2 36 15 8 331 328 328 323 322 323 328 324 325 326 326 325 295 285 278 272 269 265 262 258 253 252 251
252 261 269 283 292 278 254 249 232 213 224 220 269 287 289 328 18 6 353 356 346 324 324 331 327 328 327 323 325 321 319 319 320 319 288 284 285 279 272 263 258 249 248 253
176 281 316 287 262 248 262 251 239 239 242 246 253 270 272 280 23 354 339 338 327 319 350 339 322 316 321 325 321 319 319 321 322 320 304 292 291 288 278 268 257 251 250 251
176 229 1 268 325 318 282 254 231 211 208 225 242 260 28 3 356 335 309 314 302 336 327 321 316 323 323 326 323 316 314 319 319 319 310 298 294 289 283 276 262 254 250 252
210 207 223 276 310 248 258 89 244 241 196 207 240 273 51 15 332 317 296 308 330 326 321 315 320 319 321 323 323 324 325 325 322 317 315 311 305 292 287 278 263 256 253 251
252 287 278 247 264 286 177 210 171 135 252 186 212 106 331 330 332 285 55 352 327 299 306 311 320 319 321 324 328 328 324 324 324 321 319 317 315 311 299 277 269 263 251 248
302 243 253 235 239 255 125 146 56 73 259 123 95 260 279 328 290 287 340 300 298 310 310 319 322 319 320 323 327 324 322 324 324 325 321 317 312 309 303 293 276 271 258 252
164 209 220 229 265 279 192 145 158 160 216 190 277 263 271 263 234 288 320 314 316 317 327 330 329 322 324 327 329 325 324 321 320 320 319 318 317 311 307 296 286 276 263 255
173 174 195 194 229 250 114 102 205 77 353 255 252 253 281 294 297 296 299 303 311 323 331 336 333 327 327 332 335 323 316 319 322 323 321 320 320 318 314 303 290 276 270 253
215 200 195 193 217 141 182 248 238 258 235 258 210 24 319 298 294 303 302 303 319 323 331 335 332 322 322 326 329 321 319 324 325 326 324 325 327 324 321 312 293 278 270 255
235 239 234 13 256 248 14 275 255 310 67 64 21 344 332 311 309 299 279 301 306 324 328 327 324 318 318 326 328 324 322 323 318 317 317 321 322 323 323 313 297 277 264 256
250 354 266 277 301 302 287 296 321 353 11 351 19 2 318 308 293 280 317 314 320 321 320 320 315 317 317 322 324 329 327 328 319 316 316 316 319 319 318 317 302 289 279 262
249 260 267 270 289 291 293 295 299 339 50 30 357 324 316 304 304 324 308 311 313 309 311 313 311 310 310 316 316 323 324 325 319 308 309 307 306 310 310 310 309 301 285 281
Height
811 829 836 830 828 825 825 823 820 808 817 823 817 809 790 786 783 784 784 784 788 791 794 798 801 802 802 802 802 802 801 800 798 795 793 790 790 788 787 785 784 782 780 777
820 839 833 828 828 827 824 826 823 816 815 823 815 805 789 778 776 778 783 787 790 793 796 798 800 801 801 801 801 800 799 797 796 794 793 792 789 787 786 785 783 781 779 777
826 834 829 829 827 826 822 828 835 841 827 814 816 803 784 783 782 783 782 786 787 791 795 796 798 798 798 798 797 797 797 795 795 793 792 790 789 788 786 784 781 780 778 777
832 832 830 830 827 831 828 831 833 834 843 850 820 844 787 788 788 786 789 790 791 793 794 796 796 796 796 795 795 794 794 793 792 791 791 790 789 787 786 784 781 779 778 776
834 833 832 830 834 832 834 834 836 837 847 840 821 848 809 785 791 789 792 793 794 795 795 795 795 795 795 794 793 792 792 791 790 790 790 789 787 786 783 782 780 779 776 775
833 833 833 835 833 834 834 835 835 835 846 857 824 841 828 806 799 790 794 796 796 795 795 794 794 794 793 793 792 791 790 789 789 789 788 787 785 783 781 779 778 777 775 772
833 834 836 836 837 836 836 857 861 858 846 846 840 847 824 795 792 798 799 799 796 795 795 795 793 792 791 790 789 788 787 786 787 786 785 783 782 781 779 778 778 776 775 772
845 855 835 836 836 837 834 838 861 857 858 852 833 846 823 798 797 797 797 796 794 795 795 794 792 790 788 786 785 784 783 782 782 781 780 779 778 777 776 775 773 771 770 769
833 840 837 835 834 838 835 845 838 850 829 852 833 808 803 799 800 799 797 797 800 798 797 795 791 788 786 784 783 781 780 778 777 776 775 773 773 772 770 769 769 768 767 766
829 842 833 838 837 837 838 836 849 858 853 844 828 800 825 820 805 805 801 799 799 797 795 793 789 787 785 783 781 779 778 776 774 773 771 770 769 768 766 766 765 765 765 764
829 835 841 836 840 834 844 841 840 841 841 847 838 831 805 818 803 801 799 797 797 797 795 793 790 787 785 782 780 777 774 772 770 769 767 765 764 763 763 762 760 760 760 760
835 836 851 827 831 831 832 827 828 856 834 840 842 846 795 803 801 798 799 797 797 795 795 793 790 788 785 781 778 776 773 769 766 764 763 761 760 759 759 757 757 757 755 752
833 837 860 837 838 834 837 829 829 828 845 847 845 827 799 802 802 798 798 797 798 796 794 791 789 786 783 780 777 773 770 766 763 760 759 758 756 755 753 752 753 753 751 749
836 836 838 850 833 830 834 829 829 835 862 837 824 805 804 804 806 802 800 797 798 798 794 791 788 784 781 779 775 771 767 764 760 757 755 753 751 750 749 748 747 747 748 747
837 842 835 835 831 830 832 829 827 837 827 831 807 810 802 804 803 802 799 799 799 798 794 791 788 784 780 776 772 768 765 762 759 755 750 747 746 745 744 743 742 741 740 740
836 844 832 841 823 824 825 817 816 815 814 814 814 807 801 798 800 801 803 801 800 796 794 792 788 783 779 775 770 765 761 758 755 751 748 744 742 740 738 736 735 735 734 733
837 842 842 841 819 823 823 801 800 804 801 805 815 801 801 801 800 803 803 801 799 797 794 790 785 780 776 772 768 762 757 754 750 747 743 740 738 735 733 732 731 730 729 729
831 837 841 848 831 834 795 794 794 795 791 795 796 797 797 799 801 801 799 800 800 796 791 787 783 779 774 770 765 760 755 751 747 743 739 736 733 730 727 725 723 722 723 723
834 838 844 844 834 811 794 798 796 794 793 790 793 794 796 799 801 801 799 796 797 793 789 786 783 777 773 768 764 758 752 749 745 741 737 734 731 726 722 719 717 716 715 714
839 838 846 835 837 818 789 793 791 795 804 794 795 797 799 800 810 799 796 795 791 788 785 781 779 774 770 767 763 757 751 746 742 738 734 730 726 722 717 714 711 710 709 707
843 843 840 837 835 814 784 793 793 801 800 793 792 794 795 801 800 795 792 789 787 784 781 779 776 772 768 764 760 755 750 746 742 737 732 726 722 718 713 709 706 705 704 704
828 834 838 831 826 820 789 796 797 794 789 789 790 790 792 794 793 792 790 788 784 781 779 777 773 769 765 762 759 753 749 745 740 734 728 723 719 714 709 705 702 701 700 699
815 803 807 807 797 784 785 785 786 785 786 786 786 788 789 790 789 788 787 785 783 781 778 775 772 767 762 759 756 751 746 741 735 730 725 720 715 710 706 703 698 697 696 695
801 795 798 794 782 781 784 783 782 781 782 784 785 785 785 786 785 784 782 781 780 778 775 773 770 765 760 755 751 748 744 739 734 728 723 718 713 707 703 699 696 693 692 691
800 797 793 792 787 783 782 781 780 780 781 781 783 784 785 784 782 780 779 779 778 776 773 771 767 763 758 753 748 743 739 735 730 726 721 716 711 705 700 696 693 690 687 685
796 789 795 785 785 784 780 779 777 778 781 781 782 782 782 782 780 778 778 778 776 774 770 767 763 759 756 752 747 742 738 735 729 722 717 713 708 702 698 693 687 686 682 680